[[{"header":{"parameterUnit":"m.s-1","parameterCategory":1,"la1":30.2991,"la2":30.254,"lo1":-89.0895,"lo2":-89.0444,"dy":0.0017,"dx":0.0017,"nx":28,"ny":28,"refTime":"2025-03-27T09:00:00:Z","depth":0,"parameterNumber":2,"parameterNumberName":"U-component_of_WINDS"},"data":[0,0,0,0,0,0,0,0,0,0,0,0,0,0,0,0,0,0,0,0,0,0,0,0,0,0,0,0,0,0,0,0,0,0,0,0,0,0,0,0,0,0,0,0,0,0,0,0,0,0,0,0,0,0,0,0,0,0,-2.5513,-2.5513,0,-2.5561,-2.5561,-2.5562,-2.5488,-2.5486,-2.5483,-2.5481,-2.5532,-2.5535,-2.5539,0,0,0,0,0,0,0,0,0,0,0,0,0,-2.536,-2.5363,-2.5513,-2.5513,-2.5514,-2.5561,-2.5561,-2.5562,-2.5489,-2.5486,-2.5483,-2.548,-2.553,-2.5535,-2.5539,0,0,0,0,0,0,0,0,0,0,0,0,0,-2.5419,-2.5364,-2.5513,-2.5483,-2.5481,-2.5561,-2.5561,-2.5562,-2.5489,-2.5486,-2.5482,-2.5478,-2.5529,-2.5534,-2.554,-2.5652,0,0,-2.5557,-2.556,0,0,0,0,0,0,0,0,-2.5416,-2.5425,-2.5487,-2.5485,-2.5483,-2.5515,-2.5526,-2.5592,-2.549,-2.5486,-2.5481,-2.5476,-2.5529,-2.5535,-2.5552,-2.5654,-2.5656,-2.5558,-2.5561,-2.5563,-2.5565,0,0,0,0,0,0,0,-2.5412,-2.5422,-2.5532,-2.5488,-2.5485,-2.5468,-2.5472,-2.5538,-2.5529,-2.5486,-2.5481,-2.5488,-2.5527,-2.5547,-2.5553,-2.5657,-2.5557,-2.5562,-2.5566,-2.5568,-2.5855,-2.5859,0,0,0,0,0,0,-2.5411,-2.5419,-2.553,-2.5533,-2.5439,-2.5474,-2.5479,-2.5508,-2.5528,-2.5527,-2.5491,-2.5484,-2.5539,-2.5546,-2.5554,-2.5687,-2.5563,-2.5569,-2.5572,-2.5851,-2.5856,-2.586,0,0,0,0,0,0,-2.5408,-2.5422,-2.5528,-2.5475,-2.5487,-2.5481,-2.5515,-2.5511,-2.5531,-2.5531,-2.5529,-2.5512,-2.5536,-2.5546,-2.5628,-2.5688,-2.5571,-2.5576,-2.5846,-2.5852,-2.5858,-2.5954,0,0,0,0,0,0,-2.5404,-2.5421,-2.5462,-2.5476,-2.549,-2.5601,-2.5518,-2.5515,-2.554,-2.5532,-2.5551,-2.555,-2.5534,-2.562,-2.5634,-2.5694,-2.5581,-2.584,-2.5849,-2.5856,-2.5945,-2.5962,-2.5977,0,0,0,0,0,-2.5399,-2.5487,-2.5465,-2.5479,-2.5542,-2.5604,-2.5612,-2.5591,-2.5545,-2.5588,-2.5589,-2.555,-2.5679,-2.5629,-2.5644,-2.5706,-2.5836,-2.5846,-2.5855,-2.5938,-2.5959,-2.5977,0,0,0,0,0,0,-2.548,-2.5488,-2.5464,-2.5559,-2.5582,-2.5592,-2.5644,-2.5614,-2.5651,-2.5641,-2.5614,-2.5619,-2.5707,-2.5715,-2.5659,-2.5816,-2.575,-2.5763,-2.5808,-2.5828,-2.5844,-2.584,-2.5585,0,0,0,0,0,-2.551,-2.5559,-2.5564,-2.5648,-2.566,-2.5651,-2.5677,-2.5659,-2.5681,-2.5691,-2.5697,-2.5721,-2.5767,-2.5798,-2.584,-2.5946,-2.595,-2.5996,-2.6013,-2.6026,-2.6037,-2.6095,-2.6116,-2.5892,-2.5892,-2.5892,0,0,-2.557,-2.5581,-2.5613,-2.5664,-2.5679,-2.5732,-2.5659,-2.5717,-2.5757,-2.57,-2.5777,-2.5784,-2.5808,-2.5903,-2.5945,-2.5912,-2.61,-2.6038,-2.6049,-2.6053,-2.6107,-2.6129,-2.6148,-2.5898,-2.5897,-2.5896,0,0,-2.5708,-2.572,-2.5792,-2.5809,-2.5834,-2.5827,-2.5845,-2.586,-2.5862,-2.594,-2.5898,-2.5945,-2.6025,-2.6045,-2.6065,-2.6213,-2.618,-2.6228,-2.6312,-2.6369,-2.6387,-2.6402,-2.6456,-2.6475,-2.624,-2.624,-2.624,0,-2.578,-2.5857,-2.5833,-2.5895,-2.5919,-2.5871,-2.5944,-2.5962,-2.5999,-2.6018,-2.598,-2.608,-2.6094,-2.6193,-2.623,-2.6248,-2.6268,-2.6225,-2.6386,-2.6401,-2.6416,-2.6466,-2.6487,-2.6246,-2.6245,-2.6244,-2.6244,0,-2.5945,-2.5999,-2.6055,-2.6092,-2.6123,-2.619,-2.6178,-2.6212,-2.6192,-2.619,-2.6271,-2.6286,-2.6331,-2.6354,-2.6335,-2.6451,-2.643,-2.639,-2.6323,-2.6443,-2.649,-2.651,-2.6254,-2.6252,-2.625,-2.6249,0,0,-2.6133,-2.6158,-2.6179,-2.6196,-2.6221,-2.6263,-2.6329,-2.6373,-2.6404,-2.6432,-2.6487,-2.6557,-2.6521,-2.6544,-2.6527,-2.6577,-2.6695,-2.6531,-2.6531,-2.6562,-2.6826,-2.6856,-2.6879,-2.6673,-2.6677,-2.668,-2.6824,0,-2.627,-2.6384,-2.6366,-2.6476,-2.6527,-2.6483,-2.6541,-2.6563,-2.6564,-2.6608,-2.6608,-2.6659,-2.6606,-2.662,-2.6668,-2.6671,-2.6748,-2.666,-2.6725,-2.6728,-2.672,-2.6903,-2.6935,-2.707,-2.6842,-2.6845,-2.6848,0,-2.6445,-2.648,-2.6596,-2.6614,-2.6635,-2.6687,-2.6727,-2.677,-2.6795,-2.6792,-2.6819,-2.6794,-2.6862,-2.6795,-2.6888,-2.6829,-2.6855,-2.6861,-2.6865,-2.687,-2.6795,-2.6914,-2.7112,-2.7133,-2.6876,-2.6874,-2.6872,0,-2.6571,-2.6647,-2.6727,-2.6743,-2.6766,-2.6804,-2.6816,-2.6837,-2.6866,-2.6901,-2.692,-2.6963,-2.6987,-2.7021,-2.7009,-2.6961,-2.7106,-2.7037,-2.7106,-2.7106,-2.7137,-2.7136,-2.7344,-2.7155,-2.7155,-2.7154,-2.7154,0,-2.6726,-2.6799,-2.6784,-2.6833,-2.6914,-2.6893,-2.6974,-2.698,-2.7,-2.705,-2.7015,-2.7063,-2.7044,-2.7092,-2.7083,-2.7162,-2.7173,-2.7173,-2.717,-2.7176,-2.7176,-2.7192,-2.7183,-2.716,-2.7158,-2.7157,-2.7156,0,-2.688,-2.6873,-2.6957,-2.6973,-2.6979,-2.7038,-2.7052,-2.7098,-2.7097,-2.7161,-2.7175,-2.7173,-2.7228,-2.7219,-2.7279,-2.7273,-2.7373,-2.7358,-2.7364,-2.7361,-2.743,-2.7424,-2.7655,-2.7685,-2.7477,-2.7479,-2.7481,0,-2.6979,-2.7034,-2.7056,-2.7087,-2.7102,-2.7152,-2.7182,-2.7165,-2.7197,-2.7231,-2.7274,-2.7325,-2.7365,-2.7454,-2.7458,-2.7505,-2.7491,-2.7569,-2.7497,-2.7502,-2.7492,-2.7489,-2.7495,-2.7583,-2.7585,-2.7587,-2.7588,0,-2.7155,-2.715,-2.7193,-2.7236,-2.7272,-2.7306,-2.7335,-2.7363,-2.7349,-2.7387,-2.7442,-2.7473,-2.7535,-2.7587,-2.7631,-2.7644,-2.7615,-2.7611,-2.763,-2.7636,-2.7638,-2.7638,-2.7403,-2.7606,-2.7604,-2.7603,-2.7602,-2.7601,-2.7285,-2.7332,-2.7356,-2.7406,-2.7427,-2.7456,-2.7501,-2.7506,-2.7552,-2.7601,-2.7589,-2.7651,-2.7677,-2.7733,-2.7751,-2.7801,-2.7772,-2.7798,-2.7805,-2.7812,-2.782,-2.7631,-2.7809,-2.7808,-2.7808,-2.7807,-2.7807,0,-2.7459,-2.7473,-2.7519,-2.7563,-2.7603,-2.7572,-2.7605,-2.764,-2.7696,-2.7722,-2.7763,-2.7827,-2.7878,-2.7888,-2.7936,-2.7974,-2.7962,-2.7987,-2.7984,-2.7988,-2.7843,-2.7822,-2.7996,-2.7996,-2.7996,-2.7996,-2.7996,-2.7996,-2.7555,-2.7634,-2.7632,-2.7722,-2.7735,-2.7796,-2.7817,-2.7845,-2.7866,-2.794,-2.7982,-2.7988,-2.8008,-2.8058,-2.8104,-2.8106,-2.8125,-2.8156,-2.8152,-2.8017,-2.7998,-2.798,-2.796,-2.816,-2.8161,-2.8293,-2.8294,-2.8295]},{"header":{"parameterUnit":"m.s-1","parameterCategory":1,"la1":30.2991,"la2":30.254,"lo1":-89.0895,"lo2":-89.0444,"dy":0.0017,"dx":0.0017,"nx":28,"ny":28,"refTime":"2025-03-27T09:00:00:Z","depth":0,"parameterNumber":3,"parameterNumberName":"V-component_of_WINDS"},"data":[0,0,0,0,0,0,0,0,0,0,0,0,0,0,0,0,0,0,0,0,0,0,0,0,0,0,0,0,0,0,0,0,0,0,0,0,0,0,0,0,0,0,0,0,0,0,0,0,0,0,0,0,0,0,0,0,0,0,-1.751,-1.751,0,-1.7512,-1.7512,-1.7512,-1.7504,-1.7504,-1.7504,-1.7503,-1.7505,-1.7505,-1.7505,0,0,0,0,0,0,0,0,0,0,0,0,0,-1.7499,-1.75,-1.751,-1.751,-1.751,-1.7512,-1.7512,-1.7512,-1.7504,-1.7504,-1.7504,-1.7503,-1.7505,-1.7505,-1.7505,0,0,0,0,0,0,0,0,0,0,0,0,0,-1.7503,-1.75,-1.751,-1.7506,-1.7506,-1.7511,-1.7512,-1.7512,-1.7504,-1.7504,-1.7504,-1.7503,-1.7504,-1.7505,-1.7505,-1.7514,0,0,-1.7506,-1.7506,0,0,0,0,0,0,0,0,-1.7503,-1.7503,-1.7507,-1.7507,-1.7506,-1.7507,-1.7508,-1.7512,-1.7504,-1.7505,-1.7503,-1.7503,-1.7506,-1.7506,-1.7507,-1.7514,-1.7514,-1.7506,-1.7506,-1.7507,-1.7507,0,0,0,0,0,0,0,-1.7502,-1.7503,-1.7511,-1.7507,-1.7507,-1.7504,-1.7505,-1.7509,-1.7507,-1.7505,-1.7504,-1.7505,-1.7506,-1.7507,-1.7507,-1.7514,-1.7506,-1.7507,-1.7507,-1.7507,-1.7527,-1.7527,0,0,0,0,0,0,-1.7503,-1.7503,-1.7511,-1.7511,-1.7504,-1.7505,-1.7505,-1.7507,-1.7507,-1.7507,-1.7505,-1.7504,-1.7506,-1.7507,-1.7507,-1.7517,-1.7507,-1.7507,-1.7507,-1.7527,-1.7527,-1.7527,0,0,0,0,0,0,-1.7503,-1.7503,-1.751,-1.7507,-1.7507,-1.7505,-1.7508,-1.7508,-1.7509,-1.7507,-1.7507,-1.7506,-1.7506,-1.7506,-1.7512,-1.7517,-1.7507,-1.7507,-1.7526,-1.7527,-1.7527,-1.7536,0,0,0,0,0,0,-1.7502,-1.7503,-1.7507,-1.7507,-1.7508,-1.7516,-1.7508,-1.7508,-1.7509,-1.7509,-1.7508,-1.7508,-1.7506,-1.7511,-1.7512,-1.7517,-1.7508,-1.7526,-1.7526,-1.7527,-1.7536,-1.7537,-1.7538,0,0,0,0,0,-1.7502,-1.751,-1.7507,-1.7508,-1.7512,-1.7516,-1.7517,-1.7514,-1.751,-1.7513,-1.7512,-1.7508,-1.7516,-1.7512,-1.7513,-1.7518,-1.7526,-1.7526,-1.7527,-1.7535,-1.7537,-1.7538,0,0,0,0,0,0,-1.7511,-1.751,-1.7507,-1.7515,-1.7516,-1.7515,-1.7519,-1.7516,-1.7518,-1.7517,-1.7513,-1.7513,-1.7519,-1.7519,-1.7515,-1.7526,-1.752,-1.7521,-1.7526,-1.7527,-1.7529,-1.7529,-1.7508,0,0,0,0,0,-1.7514,-1.7517,-1.7516,-1.7523,-1.7523,-1.7521,-1.7523,-1.7521,-1.7521,-1.7521,-1.7521,-1.7521,-1.7524,-1.7525,-1.7528,-1.7535,-1.7535,-1.7539,-1.754,-1.7541,-1.7542,-1.7546,-1.7547,-1.753,-1.753,-1.753,0,0,-1.752,-1.7519,-1.7522,-1.7525,-1.7525,-1.7529,-1.7522,-1.7526,-1.7528,-1.7522,-1.7527,-1.7527,-1.7527,-1.7533,-1.7536,-1.7533,-1.7547,-1.7542,-1.7543,-1.7543,-1.7547,-1.7548,-1.755,-1.753,-1.753,-1.753,0,0,-1.7532,-1.7533,-1.7538,-1.7539,-1.7539,-1.7537,-1.7539,-1.7538,-1.7537,-1.7542,-1.7538,-1.754,-1.7545,-1.7545,-1.7546,-1.7557,-1.7554,-1.7558,-1.7565,-1.7568,-1.757,-1.7571,-1.7575,-1.7576,-1.7559,-1.7559,-1.7559,0,-1.754,-1.7545,-1.7542,-1.7546,-1.7547,-1.7541,-1.7547,-1.7547,-1.7548,-1.7549,-1.7546,-1.7551,-1.755,-1.7556,-1.7559,-1.756,-1.7561,-1.7558,-1.757,-1.7571,-1.7572,-1.7576,-1.7577,-1.7559,-1.7559,-1.7559,-1.7559,0,-1.7554,-1.7558,-1.7562,-1.7563,-1.7565,-1.7569,-1.7566,-1.7568,-1.7565,-1.7564,-1.7568,-1.7568,-1.757,-1.7571,-1.7568,-1.7576,-1.7574,-1.7571,-1.7565,-1.7574,-1.7578,-1.7579,-1.756,-1.756,-1.756,-1.756,0,0,-1.7574,-1.7572,-1.7573,-1.7573,-1.7573,-1.7576,-1.758,-1.7581,-1.7583,-1.7583,-1.7586,-1.759,-1.7586,-1.7587,-1.7584,-1.7587,-1.7596,-1.7582,-1.7582,-1.7585,-1.7604,-1.7607,-1.7609,-1.7593,-1.7593,-1.7593,-1.7604,0,-1.7586,-1.7593,-1.759,-1.7597,-1.76,-1.7594,-1.7597,-1.7597,-1.7596,-1.7598,-1.7596,-1.7598,-1.7593,-1.7593,-1.7596,-1.7594,-1.7599,-1.7593,-1.7596,-1.7596,-1.7596,-1.7611,-1.7614,-1.7624,-1.7605,-1.7605,-1.7606,0,-1.7602,-1.7603,-1.761,-1.7608,-1.761,-1.7613,-1.7613,-1.7615,-1.7615,-1.7613,-1.7614,-1.761,-1.7613,-1.7607,-1.7612,-1.7608,-1.7608,-1.7607,-1.7608,-1.7608,-1.7602,-1.7611,-1.7627,-1.7629,-1.7608,-1.7608,-1.7607,0,-1.7615,-1.7618,-1.7623,-1.7623,-1.7621,-1.7623,-1.7623,-1.7621,-1.7622,-1.7623,-1.7623,-1.7624,-1.7625,-1.7625,-1.7621,-1.7617,-1.7626,-1.762,-1.7625,-1.7625,-1.7627,-1.7627,-1.7644,-1.7628,-1.7628,-1.7628,-1.7628,0,-1.7629,-1.7634,-1.7629,-1.7632,-1.7637,-1.7632,-1.7637,-1.7636,-1.7635,-1.7637,-1.7632,-1.7634,-1.7629,-1.7631,-1.7628,-1.7632,-1.7632,-1.7631,-1.763,-1.7631,-1.7631,-1.7632,-1.7631,-1.7628,-1.7628,-1.7628,-1.7628,0,-1.7645,-1.7642,-1.7646,-1.7644,-1.7643,-1.7647,-1.7645,-1.7647,-1.7645,-1.7648,-1.7648,-1.7644,-1.7646,-1.7642,-1.7643,-1.7641,-1.7647,-1.7645,-1.7647,-1.7646,-1.7651,-1.7651,-1.7669,-1.7671,-1.7653,-1.7653,-1.7654,0,-1.7655,-1.7658,-1.7656,-1.7657,-1.7656,-1.7658,-1.7659,-1.7654,-1.7655,-1.7654,-1.7656,-1.7657,-1.7658,-1.7661,-1.7658,-1.7658,-1.7656,-1.7662,-1.7656,-1.7658,-1.7656,-1.7656,-1.7657,-1.7664,-1.7664,-1.7664,-1.7664,0,-1.7672,-1.767,-1.7671,-1.7671,-1.7672,-1.7672,-1.7672,-1.7673,-1.7668,-1.7669,-1.767,-1.7671,-1.7672,-1.7673,-1.7672,-1.7671,-1.7667,-1.7666,-1.7667,-1.7669,-1.767,-1.767,-1.765,-1.7666,-1.7666,-1.7666,-1.7666,-1.7666,-1.7685,-1.7688,-1.7686,-1.7687,-1.7686,-1.7686,-1.7688,-1.7685,-1.7686,-1.7687,-1.7684,-1.7685,-1.7684,-1.7683,-1.7682,-1.7683,-1.7681,-1.7682,-1.7683,-1.7683,-1.7684,-1.767,-1.7683,-1.7683,-1.7683,-1.7683,-1.7683,0,-1.7702,-1.77,-1.7701,-1.7701,-1.7702,-1.7697,-1.7696,-1.7697,-1.7699,-1.7698,-1.7698,-1.7699,-1.77,-1.7697,-1.7697,-1.7699,-1.7697,-1.7699,-1.7699,-1.7699,-1.7687,-1.7686,-1.77,-1.77,-1.77,-1.77,-1.77,-1.77,-1.7711,-1.7715,-1.7712,-1.7716,-1.7714,-1.7716,-1.7716,-1.7715,-1.7714,-1.7715,-1.7716,-1.7714,-1.7711,-1.7711,-1.7711,-1.771,-1.7711,-1.7714,-1.7712,-1.7701,-1.77,-1.7698,-1.7697,-1.7714,-1.7714,-1.7724,-1.7724,-1.7724]}]]